FYI1648 LFBO-LICC

Flight info

Callsign FYI1648
Flight time 1h 55m
Altitude 37000
Route AMOLO DCT DEGOL DCT FJR DCT AMFAC DCT BATIV DCT PELOS DCT IPROM DCT BEKIV M871 LIBRO
Aircraft A320/M-SDE3FGHIRWY/LB1

Departure

Time 2026-05-04 14:41
Airport Toulouse-Blagnac Airport (LFBO)

Arrival

Time 2026-05-04 16:37
Airport Catania-Fontanarossa Airport (LICC)
Time Latitude Longitude Altitude Speed Heading
2026-05-04 14:16 43.62998 1.37268 485 ft 0 kts 53°
2026-05-04 14:25 43.62998 1.37267 494 ft 0 kts 53°
2026-05-04 14:30 43.62997 1.37267 494 ft 0 kts 53°
2026-05-04 14:31 43.62995 1.37264 486 ft 3 kts 53°
2026-05-04 14:32 43.62967 1.37211 489 ft 4 kts 70°
2026-05-04 14:32 43.62967 1.37182 492 ft 4 kts 136°
2026-05-04 14:32 43.62985 1.37162 483 ft 2 kts 142°
2026-05-04 14:32 43.62986 1.37161 483 ft 0 kts 142°
2026-05-04 14:35 43.62949 1.37197 483 ft 9 kts 154°
2026-05-04 14:35 43.62892 1.37174 488 ft 16 kts 226°
2026-05-04 14:35 43.62812 1.37061 489 ft 16 kts 194°
2026-05-04 14:35 43.62713 1.37136 487 ft 16 kts 143°
2026-05-04 14:36 43.62631 1.37222 489 ft 15 kts 143°
2026-05-04 14:36 43.62556 1.37300 491 ft 16 kts 142°
2026-05-04 14:36 43.62456 1.37406 487 ft 17 kts 142°
2026-05-04 14:36 43.62372 1.37494 489 ft 13 kts 143°
2026-05-04 14:37 43.62313 1.37554 491 ft 8 kts 143°
2026-05-04 14:37 43.62271 1.37597 490 ft 11 kts 143°
2026-05-04 14:37 43.62209 1.37661 488 ft 9 kts 151°
2026-05-04 14:37 43.62128 1.37612 489 ft 17 kts 233°
2026-05-04 14:38 43.62058 1.37483 492 ft 16 kts 232°
2026-05-04 14:38 43.61991 1.37362 488 ft 15 kts 232°
2026-05-04 14:38 43.61959 1.37303 492 ft 0 kts 232°
2026-05-04 14:39 43.61957 1.37300 486 ft 3 kts 232°
2026-05-04 14:39 43.61926 1.37244 494 ft 8 kts 232°
2026-05-04 14:40 43.61934 1.37171 489 ft 6 kts 318°
2026-05-04 14:40 43.61957 1.37148 490 ft 0 kts 324°
2026-05-04 14:40 43.62077 1.37025 488 ft 55 kts 321°
2026-05-04 14:41 43.62546 1.36534 488 ft 113 kts 322°
2026-05-04 14:41 43.63313 1.35734 494 ft 161 kts 323°
2026-05-04 14:41 43.65101 1.33896 1946 ft 157 kts 323°
2026-05-04 14:42 43.67011 1.32032 2691 ft 187 kts 323°
2026-05-04 14:42 43.68133 1.30923 2904 ft 209 kts 323°
2026-05-04 14:42 43.69558 1.30156 3250 ft 237 kts 358°
2026-05-04 14:43 43.71195 1.30849 3793 ft 263 kts 36°
2026-05-04 14:43 43.72403 1.32813 4900 ft 273 kts 58°
2026-05-04 14:43 43.73318 1.35168 6197 ft 282 kts 65°
2026-05-04 14:43 43.74187 1.37620 7770 ft 286 kts 64°
2026-05-04 14:44 43.75094 1.40055 8705 ft 292 kts 62°
2026-05-04 14:44 43.76105 1.42539 9538 ft 302 kts 60°
2026-05-04 14:44 43.77211 1.45062 10403 ft 315 kts 59°
2026-05-04 14:44 43.78437 1.47714 10826 ft 339 kts 58°
2026-05-04 14:45 43.79759 1.50487 11356 ft 350 kts 57°
2026-05-04 14:45 43.81117 1.53313 11994 ft 355 kts 59°
2026-05-04 14:45 43.82240 1.56372 12636 ft 359 kts 70°
2026-05-04 14:45 43.83012 1.59668 13305 ft 362 kts 75°
2026-05-04 14:46 43.83739 1.63022 13910 ft 366 kts 75°
2026-05-04 14:46 43.84468 1.66410 14502 ft 369 kts 75°
2026-05-04 14:46 43.85205 1.69834 15101 ft 372 kts 75°
2026-05-04 14:46 43.85950 1.73282 15702 ft 376 kts 76°
2026-05-04 14:47 43.86704 1.76771 16347 ft 379 kts 76°
2026-05-04 14:47 43.87461 1.80284 16981 ft 382 kts 76°
2026-05-04 14:47 43.88226 1.83827 17563 ft 386 kts 76°
2026-05-04 14:47 43.88998 1.87405 18131 ft 389 kts 76°
2026-05-04 14:48 43.89763 1.90970 18595 ft 392 kts 76°
2026-05-04 14:48 43.90553 1.94667 19038 ft 397 kts 77°
2026-05-04 14:48 43.91297 1.98368 19495 ft 399 kts 82°
2026-05-04 14:48 43.91634 2.02125 19949 ft 398 kts 92°
2026-05-04 14:49 43.91483 2.05945 20395 ft 396 kts 103°
2026-05-04 14:49 43.90907 2.09677 20834 ft 397 kts 108°
2026-05-04 14:49 43.90271 2.13418 21279 ft 400 kts 108°
2026-05-04 14:49 43.89639 2.17191 21740 ft 404 kts 108°
2026-05-04 14:50 43.89006 2.20999 22194 ft 407 kts 108°
2026-05-04 14:50 43.88369 2.24833 22642 ft 410 kts 108°
2026-05-04 14:50 43.87727 2.28692 23062 ft 413 kts 108°
2026-05-04 14:50 43.87077 2.32584 23434 ft 417 kts 108°
2026-05-04 14:51 43.86416 2.36522 23781 ft 421 kts 108°
2026-05-04 14:51 43.85748 2.40481 24125 ft 424 kts 108°
2026-05-04 14:51 43.85074 2.44468 24482 ft 426 kts 108°
2026-05-04 14:51 43.84394 2.48475 24837 ft 428 kts 108°
2026-05-04 14:52 43.83708 2.52501 25185 ft 431 kts 108°
2026-05-04 14:52 43.83016 2.56549 25525 ft 433 kts 108°
2026-05-04 14:52 43.82321 2.60614 25878 ft 435 kts 109°
2026-05-04 14:52 43.81620 2.64705 26204 ft 438 kts 109°
2026-05-04 14:53 43.80910 2.68818 26501 ft 441 kts 109°
2026-05-04 14:53 43.80190 2.72954 26786 ft 444 kts 109°
2026-05-04 14:53 43.79465 2.77110 27095 ft 446 kts 109°
2026-05-04 14:53 43.78733 2.81299 27408 ft 448 kts 109°
2026-05-04 14:54 43.77999 2.85500 27730 ft 451 kts 109°
2026-05-04 14:54 43.77261 2.89723 28046 ft 453 kts 109°
2026-05-04 14:54 43.76518 2.93971 28353 ft 455 kts 109°
2026-05-04 14:54 43.75771 2.98233 28651 ft 457 kts 109°
2026-05-04 14:55 43.75032 3.02450 28970 ft 459 kts 110°
2026-05-04 14:55 43.74276 3.06749 29239 ft 461 kts 109°
2026-05-04 14:55 43.73517 3.11051 29570 ft 461 kts 109°
2026-05-04 14:55 43.72749 3.15373 29880 ft 463 kts 109°
2026-05-04 14:56 43.71977 3.19704 30161 ft 465 kts 109°
2026-05-04 14:56 43.71200 3.24052 30422 ft 467 kts 109°
2026-05-04 14:56 43.70415 3.28427 30684 ft 470 kts 110°
2026-05-04 14:56 43.69631 3.32807 30998 ft 470 kts 110°
2026-05-04 14:57 43.68845 3.37186 31340 ft 469 kts 110°
2026-05-04 14:57 43.68058 3.41560 31624 ft 469 kts 110°
2026-05-04 14:57 43.67271 3.45927 31914 ft 469 kts 110°
2026-05-04 14:57 43.66479 3.50309 32204 ft 469 kts 110°
2026-05-04 14:58 43.65688 3.54680 32486 ft 470 kts 110°
2026-05-04 14:58 43.64896 3.59051 32776 ft 470 kts 110°
2026-05-04 14:58 43.64100 3.63433 33095 ft 470 kts 110°
2026-05-04 14:58 43.63303 3.67802 33420 ft 470 kts 111°
2026-05-04 14:59 43.62504 3.72170 33715 ft 469 kts 111°
2026-05-04 14:59 43.61704 3.76543 33984 ft 470 kts 111°
2026-05-04 14:59 43.60096 3.85274 34412 ft 470 kts 110°
2026-05-04 15:00 43.59284 3.89649 34651 ft 471 kts 110°
2026-05-04 15:00 43.58340 3.93949 34857 ft 465 kts 118°
2026-05-04 15:00 43.56963 3.97938 35060 ft 456 kts 128°
2026-05-04 15:01 43.53158 4.04732 35443 ft 445 kts 139°
2026-05-04 15:01 43.51096 4.07920 35674 ft 446 kts 139°
2026-05-04 15:01 43.49033 4.11113 35885 ft 446 kts 139°
2026-05-04 15:01 43.46972 4.14307 36070 ft 446 kts 139°
2026-05-04 15:02 43.44912 4.17503 36311 ft 446 kts 139°
2026-05-04 15:02 43.42852 4.20695 36473 ft 446 kts 139°
2026-05-04 15:02 43.40787 4.23886 36637 ft 447 kts 139°
2026-05-04 15:02 43.38718 4.27073 36795 ft 447 kts 139°
2026-05-04 15:03 43.36653 4.30253 36932 ft 447 kts 139°
2026-05-04 15:03 43.34583 4.33439 36936 ft 446 kts 139°
2026-05-04 15:03 43.30449 4.39789 36947 ft 446 kts 139°
2026-05-04 15:04 43.26315 4.46127 36947 ft 446 kts 140°
2026-05-04 15:04 43.22208 4.52409 36947 ft 445 kts 140°
2026-05-04 15:05 43.18063 4.58730 36937 ft 445 kts 140°
2026-05-04 15:05 43.13913 4.65031 36934 ft 446 kts 140°
2026-05-04 15:06 43.09758 4.71323 36916 ft 446 kts 140°
2026-05-04 15:07 43.03517 4.80778 36945 ft 446 kts 140°
2026-05-04 15:07 42.99355 4.87068 36938 ft 446 kts 140°
2026-05-04 15:08 42.95183 4.93344 36953 ft 446 kts 141°
2026-05-04 15:08 42.91012 4.99617 36922 ft 447 kts 141°
2026-05-04 15:09 42.86886 5.06012 36946 ft 455 kts 135°
2026-05-04 15:09 42.83129 5.12981 36955 ft 456 kts 134°
2026-05-04 15:10 42.77485 5.23417 36961 ft 456 kts 135°
2026-05-04 15:11 42.71832 5.33821 36950 ft 456 kts 135°
2026-05-04 15:11 42.68077 5.40704 36956 ft 456 kts 135°
2026-05-04 15:12 42.64292 5.47626 36957 ft 457 kts 135°
2026-05-04 15:12 42.60493 5.54554 36968 ft 457 kts 135°
2026-05-04 15:13 42.56695 5.61471 36973 ft 457 kts 135°
2026-05-04 15:13 42.52890 5.68389 36978 ft 457 kts 135°
2026-05-04 15:14 42.49079 5.75298 36965 ft 458 kts 135°
2026-05-04 15:14 42.45260 5.82210 36961 ft 459 kts 135°
2026-05-04 15:15 42.41434 5.89115 36966 ft 458 kts 135°
2026-05-04 15:15 42.37607 5.96017 36981 ft 458 kts 135°
2026-05-04 15:16 42.31851 6.06347 36985 ft 459 kts 135°
2026-05-04 15:17 42.26082 6.16677 36982 ft 459 kts 135°
2026-05-04 15:17 42.20330 6.26935 36993 ft 459 kts 135°
2026-05-04 15:18 42.16466 6.33791 37001 ft 459 kts 135°
2026-05-04 15:19 42.10685 6.44090 37004 ft 460 kts 134°
2026-05-04 15:19 42.05075 6.54614 36987 ft 462 kts 133°
2026-05-04 15:20 42.01343 6.61659 36993 ft 462 kts 133°
2026-05-04 15:20 41.97583 6.68667 36981 ft 462 kts 134°
2026-05-04 15:21 41.93804 6.75677 37001 ft 463 kts 134°
2026-05-04 15:22 41.88773 6.84970 36987 ft 462 kts 134°
2026-05-04 15:22 41.83084 6.95436 36990 ft 464 kts 134°
2026-05-04 15:23 41.79278 7.02427 36996 ft 464 kts 134°
2026-05-04 15:23 41.75482 7.09406 36989 ft 465 kts 133°
2026-05-04 15:24 41.67838 7.23392 36999 ft 465 kts 134°
2026-05-04 15:25 41.64005 7.30361 37010 ft 465 kts 134°
2026-05-04 15:26 41.58249 7.40805 37013 ft 466 kts 134°
2026-05-04 15:26 41.52487 7.51251 37002 ft 466 kts 134°
2026-05-04 15:27 41.46727 7.61642 36985 ft 467 kts 134°
2026-05-04 15:28 41.40887 7.72146 36990 ft 469 kts 134°
2026-05-04 15:29 41.35072 7.82569 37015 ft 470 kts 134°
2026-05-04 15:30 41.21378 8.06950 37001 ft 471 kts 134°
2026-05-04 15:31 41.15046 8.16752 37007 ft 457 kts 149°
2026-05-04 15:32 41.07660 8.24626 37011 ft 469 kts 136°
2026-05-04 15:32 41.03824 8.31712 36995 ft 474 kts 132°
2026-05-04 15:34 40.94154 8.49464 37021 ft 477 kts 132°
2026-05-04 15:34 40.88319 8.60131 37034 ft 478 kts 132°
2026-05-04 15:35 40.82481 8.70801 37038 ft 478 kts 132°
2026-05-04 15:36 40.76630 8.81459 37019 ft 478 kts 131°
2026-05-04 15:36 40.72720 8.88555 37025 ft 478 kts 131°
2026-05-04 15:37 40.68803 8.95646 37035 ft 479 kts 131°
2026-05-04 15:37 40.64877 9.02731 37039 ft 479 kts 131°
2026-05-04 15:38 40.60969 9.09762 37041 ft 479 kts 131°
2026-05-04 15:38 40.57008 9.16886 37038 ft 480 kts 131°
2026-05-04 15:39 40.53064 9.23969 37030 ft 480 kts 131°
2026-05-04 15:40 40.47120 9.34597 37037 ft 481 kts 131°
2026-05-04 15:40 40.43173 9.41626 37050 ft 482 kts 131°
2026-05-04 15:41 40.39192 9.48715 37045 ft 482 kts 131°
2026-05-04 15:41 40.35199 9.55802 37049 ft 484 kts 131°
2026-05-04 15:42 40.31195 9.62887 37047 ft 484 kts 131°
2026-05-04 15:42 40.27185 9.69990 37059 ft 485 kts 131°
2026-05-04 15:43 40.23160 9.77082 37064 ft 485 kts 131°
2026-05-04 15:43 40.19124 9.84165 37062 ft 485 kts 130°
2026-05-04 15:44 40.15091 9.91248 37061 ft 486 kts 130°
2026-05-04 15:44 40.11053 9.98341 37067 ft 486 kts 130°
2026-05-04 15:45 40.07006 10.05412 37061 ft 486 kts 130°
2026-05-04 15:45 40.02946 10.12480 37054 ft 487 kts 130°
2026-05-04 15:46 39.98887 10.19553 37063 ft 487 kts 130°
2026-05-04 15:46 39.94815 10.26619 37060 ft 488 kts 130°
2026-05-04 15:47 39.90754 10.33644 37069 ft 489 kts 130°
2026-05-04 15:47 39.86662 10.40712 37076 ft 489 kts 130°
2026-05-04 15:48 39.82572 10.47773 37083 ft 489 kts 130°
2026-05-04 15:48 39.76420 10.58350 37068 ft 489 kts 130°
2026-05-04 15:49 39.72323 10.65384 37099 ft 487 kts 130°
2026-05-04 15:49 39.68228 10.72394 37102 ft 487 kts 130°
2026-05-04 15:50 39.64132 10.79371 37105 ft 486 kts 130°
2026-05-04 15:50 39.60031 10.86352 37094 ft 486 kts 130°
2026-05-04 15:51 39.55935 10.93328 37105 ft 486 kts 130°
2026-05-04 15:51 39.51833 11.00278 37098 ft 486 kts 130°
2026-05-04 15:52 39.47724 11.07220 37079 ft 485 kts 130°
2026-05-04 15:52 39.43619 11.14155 37083 ft 485 kts 130°
2026-05-04 15:53 39.39513 11.21069 37086 ft 485 kts 130°
2026-05-04 15:53 39.35403 11.27980 37092 ft 485 kts 130°
2026-05-04 15:54 39.31289 11.34872 37099 ft 485 kts 130°
2026-05-04 15:54 39.27172 11.41760 37098 ft 484 kts 130°
2026-05-04 15:55 39.23049 11.48636 37075 ft 484 kts 130°
2026-05-04 15:55 39.18931 11.55507 37086 ft 484 kts 130°
2026-05-04 15:56 39.14809 11.62370 37098 ft 484 kts 130°
2026-05-04 15:56 39.10689 11.69220 37095 ft 484 kts 130°
2026-05-04 15:57 39.06563 11.76050 37101 ft 483 kts 130°
2026-05-04 15:57 39.02437 11.82863 37101 ft 482 kts 130°
2026-05-04 15:58 38.98312 11.89664 37106 ft 482 kts 130°
2026-05-04 15:58 38.94185 11.96458 37091 ft 483 kts 131°
2026-05-04 15:59 38.90049 12.03248 37096 ft 483 kts 131°
2026-05-04 15:59 38.85939 12.09987 37096 ft 483 kts 130°
2026-05-04 16:00 38.81788 12.16768 37098 ft 483 kts 130°
2026-05-04 16:00 38.77632 12.23543 37106 ft 483 kts 131°
2026-05-04 16:01 38.73470 12.30313 37109 ft 483 kts 130°
2026-05-04 16:01 38.69313 12.37078 37099 ft 483 kts 131°
2026-05-04 16:02 38.65150 12.43835 37095 ft 483 kts 130°
2026-05-04 16:03 38.58883 12.53950 37107 ft 484 kts 130°
2026-05-04 16:03 38.54697 12.60704 37113 ft 485 kts 130°
2026-05-04 16:04 38.50506 12.67447 37119 ft 485 kts 130°
2026-05-04 16:04 38.44211 12.77565 37123 ft 485 kts 130°
2026-05-04 16:05 38.40007 12.84302 37119 ft 485 kts 130°
2026-05-04 16:05 38.35783 12.91033 36818 ft 488 kts 130°
2026-05-04 16:06 38.33661 12.94412 36167 ft 488 kts 130°
2026-05-04 16:06 38.28047 13.03356 34655 ft 484 kts 130°
2026-05-04 16:07 38.25268 13.07778 33861 ft 483 kts 130°
2026-05-04 16:07 38.19018 13.17689 32120 ft 475 kts 129°
2026-05-04 16:08 38.16957 13.20955 31559 ft 473 kts 129°
2026-05-04 16:08 38.10812 13.30658 29893 ft 466 kts 129°
2026-05-04 16:09 38.06780 13.37003 28856 ft 457 kts 129°
2026-05-04 16:09 38.02827 13.43218 27840 ft 448 kts 129°
2026-05-04 16:10 37.98948 13.49310 26848 ft 440 kts 130°
2026-05-04 16:11 37.93863 13.57264 25502 ft 433 kts 130°
2026-05-04 16:11 37.91968 13.60226 24968 ft 432 kts 129°
2026-05-04 16:12 37.86918 13.69448 23549 ft 422 kts 111°
2026-05-04 16:12 37.83739 13.79682 22144 ft 411 kts 111°
2026-05-04 16:13 37.81640 13.86315 21078 ft 402 kts 111°
2026-05-04 16:13 37.79601 13.92751 20180 ft 387 kts 111°
2026-05-04 16:14 37.77641 13.98949 19337 ft 375 kts 111°
2026-05-04 16:14 37.75696 14.05038 18492 ft 373 kts 111°
2026-05-04 16:15 37.72746 14.14056 17198 ft 367 kts 111°
2026-05-04 16:16 37.70812 14.19979 16393 ft 363 kts 111°
2026-05-04 16:16 37.67947 14.28769 15192 ft 359 kts 111°
2026-05-04 16:17 37.66044 14.34575 14397 ft 357 kts 112°
2026-05-04 16:18 37.63221 14.43150 13305 ft 348 kts 112°
2026-05-04 16:18 37.62492 14.46051 12838 ft 346 kts 98°
2026-05-04 16:19 37.62749 14.54967 11614 ft 338 kts 84°
2026-05-04 16:19 37.63129 14.60732 11280 ft 320 kts 83°
2026-05-04 16:20 37.63666 14.68732 10907 ft 291 kts 86°
2026-05-04 16:20 37.62298 14.73186 10460 ft 275 kts 144°
2026-05-04 16:21 37.56975 14.74734 9332 ft 259 kts 183°
2026-05-04 16:22 37.54124 14.72661 8889 ft 242 kts 244°
2026-05-04 16:22 37.53314 14.66603 8282 ft 236 kts 265°
2026-05-04 16:23 37.52774 14.60455 7850 ft 235 kts 265°
2026-05-04 16:24 37.52051 14.52284 7287 ft 234 kts 265°
2026-05-04 16:25 37.51690 14.48199 7051 ft 235 kts 265°
2026-05-04 16:26 37.47304 14.44553 6572 ft 209 kts 173°
2026-05-04 16:26 37.43092 14.45419 6235 ft 203 kts 148°
2026-05-04 16:27 37.41660 14.48256 6017 ft 198 kts 91°
2026-05-04 16:28 37.42074 14.53399 5703 ft 197 kts 83°
2026-05-04 16:28 37.42528 14.58517 5406 ft 195 kts 83°
2026-05-04 16:29 37.43127 14.65299 5028 ft 194 kts 83°
2026-05-04 16:30 37.43573 14.70357 4551 ft 194 kts 83°
2026-05-04 16:31 37.43869 14.73741 4211 ft 195 kts 83°
2026-05-04 16:31 37.44315 14.78848 3700 ft 196 kts 84°
2026-05-04 16:32 37.44762 14.84023 3188 ft 200 kts 85°
2026-05-04 16:33 37.45036 14.87351 2831 ft 190 kts 84°
2026-05-04 16:33 37.45322 14.90694 2324 ft 191 kts 86°
2026-05-04 16:34 37.45598 14.93914 1840 ft 178 kts 87°
2026-05-04 16:34 37.45724 14.95390 1602 ft 164 kts 87°
2026-05-04 16:35 37.46067 14.99419 1004 ft 148 kts 88°
2026-05-04 16:35 37.46382 15.03164 434 ft 139 kts 83°
2026-05-04 16:36 37.46482 15.04368 272 ft 139 kts 81°
2026-05-04 16:36 37.46676 15.06609 51 ft 101 kts 86°
2026-05-04 16:37 37.46775 15.07591 53 ft 28 kts 68°
2026-05-04 16:37 37.46842 15.07748 52 ft 14 kts 56°
2026-05-04 16:37 37.46931 15.07667 52 ft 23 kts 263°
2026-05-04 16:38 37.46897 15.07262 51 ft 24 kts 264°
2026-05-04 16:39 37.46838 15.06570 51 ft 29 kts 264°
2026-05-04 16:39 37.46879 15.06364 51 ft 8 kts 353°
2026-05-04 16:40 37.46969 15.06403 51 ft 0 kts 32°